Year,Month,Day,Hour,Minute,Value (Times are PST for insolation in W/m^2)
2011,06,17,00,00,0.00
2011,06,17,00,01,0.00
2011,06,17,00,02,0.00
2011,06,17,00,03,0.00
2011,06,17,00,04,0.00
2011,06,17,00,05,0.00
2011,06,17,00,06,0.00
2011,06,17,00,07,0.00
2011,06,17,00,08,0.00
2011,06,17,00,09,0.00
2011,06,17,00,10,0.00
2011,06,17,00,11,0.00
2011,06,17,00,12,0.00
2011,06,17,00,16,0.00
2011,06,17,00,17,0.00
2011,06,17,00,18,0.00
2011,06,17,00,19,0.00
2011,06,17,00,20,0.00
2011,06,17,00,21,0.00
2011,06,17,00,22,0.00
2011,06,17,00,23,0.00
2011,06,17,00,24,0.00
2011,06,17,00,25,0.00
2011,06,17,00,26,0.00
2011,06,17,00,27,0.00
2011,06,17,00,28,0.00
2011,06,17,00,29,0.00
2011,06,17,00,30,0.00
2011,06,17,00,31,0.00
2011,06,17,00,32,0.00
2011,06,17,00,33,0.00
2011,06,17,00,34,0.00
2011,06,17,00,35,0.00
2011,06,17,00,36,0.00
2011,06,17,00,37,0.00
2011,06,17,00,38,0.00
2011,06,17,00,39,0.00
2011,06,17,00,40,0.00
2011,06,17,00,41,0.00
2011,06,17,00,42,0.00
2011,06,17,00,43,0.00
2011,06,17,00,44,0.00
2011,06,17,00,45,0.00
2011,06,17,00,46,0.00
2011,06,17,00,47,0.00
2011,06,17,00,48,0.00
2011,06,17,00,49,0.00
2011,06,17,00,50,0.00
2011,06,17,00,51,0.00
2011,06,17,00,52,0.00
2011,06,17,00,53,0.00
2011,06,17,00,54,0.00
2011,06,17,00,55,0.00
2011,06,17,00,56,0.00
2011,06,17,00,57,0.00
2011,06,17,00,58,0.00
2011,06,17,00,59,0.00
2011,06,17,01,00,0.00
2011,06,17,01,01,0.00
2011,06,17,01,02,0.00
2011,06,17,01,03,0.00
2011,06,17,01,04,0.00
2011,06,17,01,05,0.00
2011,06,17,01,06,0.00
2011,06,17,01,07,0.00
2011,06,17,01,08,0.00
2011,06,17,01,09,0.00
2011,06,17,01,10,0.00
2011,06,17,01,11,0.00
2011,06,17,01,12,0.00
2011,06,17,01,13,0.00
2011,06,17,01,14,0.00
2011,06,17,01,15,0.00
2011,06,17,01,16,0.00
2011,06,17,01,17,0.00
2011,06,17,01,18,0.00
2011,06,17,01,19,0.00
2011,06,17,01,20,0.00
2011,06,17,01,21,0.00
2011,06,17,01,22,0.00
2011,06,17,01,23,0.00
2011,06,17,01,24,0.00
2011,06,17,01,25,0.00
2011,06,17,01,26,0.00
2011,06,17,01,27,0.00
2011,06,17,01,28,0.00
2011,06,17,01,29,0.00
2011,06,17,01,30,0.00
2011,06,17,01,31,0.00
2011,06,17,01,32,0.00
2011,06,17,01,33,0.00
2011,06,17,01,34,0.00
2011,06,17,01,35,0.00
2011,06,17,01,36,0.00
2011,06,17,01,37,0.00
2011,06,17,01,38,0.00
2011,06,17,01,39,0.00
2011,06,17,01,40,0.00
2011,06,17,01,41,0.00
2011,06,17,01,42,0.00
2011,06,17,01,43,0.00
2011,06,17,01,44,0.00
2011,06,17,01,45,0.00
2011,06,17,01,46,0.00
2011,06,17,01,47,0.00
2011,06,17,01,48,0.00
2011,06,17,01,49,0.00
2011,06,17,01,50,0.00
2011,06,17,01,51,0.00
2011,06,17,01,52,0.00
2011,06,17,01,53,0.00
2011,06,17,01,54,0.00
2011,06,17,01,55,0.00
2011,06,17,01,56,0.00
2011,06,17,01,57,0.00
2011,06,17,01,58,0.00
2011,06,17,01,59,0.00
2011,06,17,02,00,0.00
2011,06,17,02,01,0.00
2011,06,17,02,02,0.00
2011,06,17,02,03,0.00
2011,06,17,02,04,0.00
2011,06,17,02,05,0.00
2011,06,17,02,06,0.00
2011,06,17,02,07,0.00
2011,06,17,02,08,0.00
2011,06,17,02,09,0.00
2011,06,17,02,10,0.00
2011,06,17,02,11,0.00
2011,06,17,02,12,0.00
2011,06,17,02,13,0.00
2011,06,17,02,14,0.00
2011,06,17,02,15,0.00
2011,06,17,02,16,0.00
2011,06,17,02,17,0.00
2011,06,17,02,18,0.00
2011,06,17,02,19,0.00
2011,06,17,02,20,0.00
2011,06,17,02,21,0.00
2011,06,17,02,22,0.00
2011,06,17,02,23,0.00
2011,06,17,02,24,0.00
2011,06,17,02,25,0.00
2011,06,17,02,26,0.00
2011,06,17,02,27,0.00
2011,06,17,02,28,0.00
2011,06,17,02,29,0.00
2011,06,17,02,30,0.00
2011,06,17,02,31,0.00
2011,06,17,02,32,0.00
2011,06,17,02,33,0.00
2011,06,17,02,34,0.00
2011,06,17,02,35,0.00
2011,06,17,02,36,0.00
2011,06,17,02,37,0.00
2011,06,17,02,38,0.00
2011,06,17,02,39,0.00
2011,06,17,02,40,0.00
2011,06,17,02,41,0.00
2011,06,17,02,42,0.00
2011,06,17,02,43,0.00
2011,06,17,02,44,0.00
2011,06,17,02,45,0.00
2011,06,17,02,46,0.00
2011,06,17,02,47,0.00
2011,06,17,02,48,0.00
2011,06,17,02,49,0.00
2011,06,17,02,50,0.00
2011,06,17,02,51,0.00
2011,06,17,02,52,0.00
2011,06,17,02,53,0.00
2011,06,17,02,54,0.00
2011,06,17,02,55,0.00
2011,06,17,02,56,0.00
2011,06,17,02,57,0.00
2011,06,17,02,58,0.00
2011,06,17,02,59,0.00
2011,06,17,03,00,0.00
2011,06,17,03,01,0.00
2011,06,17,03,02,0.00
2011,06,17,03,03,0.00
2011,06,17,03,04,0.00
2011,06,17,03,05,0.00
2011,06,17,03,06,0.00
2011,06,17,03,07,0.00
2011,06,17,03,08,0.00
2011,06,17,03,09,0.00
2011,06,17,03,10,0.00
2011,06,17,03,11,0.00
2011,06,17,03,12,0.00
2011,06,17,03,13,0.00
2011,06,17,03,14,0.00
2011,06,17,03,15,0.00
2011,06,17,03,16,0.00
2011,06,17,03,17,0.00
2011,06,17,03,18,0.00
2011,06,17,03,19,0.00
2011,06,17,03,20,0.00
2011,06,17,03,21,0.00
2011,06,17,03,22,0.00
2011,06,17,03,23,0.00
2011,06,17,03,24,0.00
2011,06,17,03,25,0.00
2011,06,17,03,26,0.00
2011,06,17,03,27,0.00
2011,06,17,03,28,0.00
2011,06,17,03,29,0.00
2011,06,17,03,30,0.00
2011,06,17,03,31,0.00
2011,06,17,03,32,0.00
2011,06,17,03,33,0.00
2011,06,17,03,34,0.00
2011,06,17,03,35,0.00
2011,06,17,03,36,0.00
2011,06,17,03,37,0.00
2011,06,17,03,38,0.00
2011,06,17,03,39,0.00
2011,06,17,03,40,0.00
2011,06,17,03,41,0.00
2011,06,17,03,42,0.00
2011,06,17,03,43,0.00
2011,06,17,03,44,0.00
2011,06,17,03,45,0.00
2011,06,17,03,46,0.00
2011,06,17,03,47,0.00
2011,06,17,03,48,0.00
2011,06,17,03,49,0.00
2011,06,17,03,50,0.00
2011,06,17,03,51,0.00
2011,06,17,03,52,0.00
2011,06,17,03,53,0.00
2011,06,17,03,54,0.00
2011,06,17,03,55,0.00
2011,06,17,03,56,0.00
2011,06,17,03,57,0.00
2011,06,17,03,58,0.00
2011,06,17,03,59,0.00
2011,06,17,04,00,0.00
2011,06,17,04,01,0.00
2011,06,17,04,02,0.00
2011,06,17,04,03,0.00
2011,06,17,04,04,0.00
2011,06,17,04,05,0.00
2011,06,17,04,06,0.00
2011,06,17,04,07,0.00
2011,06,17,04,08,0.00
2011,06,17,04,09,0.00
2011,06,17,04,10,0.00
2011,06,17,04,11,0.00
2011,06,17,04,12,0.00
2011,06,17,04,13,0.00
2011,06,17,04,14,0.00
2011,06,17,04,15,0.00
2011,06,17,04,16,0.00
2011,06,17,04,17,0.00
2011,06,17,04,18,0.00
2011,06,17,04,19,0.00
2011,06,17,04,20,0.00
2011,06,17,04,21,0.00
2011,06,17,04,22,0.00
2011,06,17,04,23,0.00
2011,06,17,04,24,0.00
2011,06,17,04,25,0.00
2011,06,17,04,26,0.00
2011,06,17,04,27,0.00
2011,06,17,04,28,0.00
2011,06,17,04,29,0.00
2011,06,17,04,30,0.00
2011,06,17,04,31,0.00
2011,06,17,04,32,0.00
2011,06,17,04,33,0.00
2011,06,17,04,34,0.00
2011,06,17,04,35,0.00
2011,06,17,04,36,0.00
2011,06,17,04,37,0.00
2011,06,17,04,38,0.00
2011,06,17,04,39,0.00
2011,06,17,04,40,0.00
2011,06,17,04,41,0.00
2011,06,17,04,42,0.00
2011,06,17,04,43,0.00
2011,06,17,04,44,0.00
2011,06,17,04,45,0.00
2011,06,17,04,46,0.00
2011,06,17,04,47,0.00
2011,06,17,04,48,0.00
2011,06,17,04,49,0.00
2011,06,17,04,50,0.00
2011,06,17,04,51,0.00
2011,06,17,04,52,0.00
2011,06,17,04,53,0.00
2011,06,17,04,54,0.00
2011,06,17,04,55,0.00
2011,06,17,04,56,0.00
2011,06,17,04,57,0.00
2011,06,17,04,58,0.00
2011,06,17,04,59,0.00
2011,06,17,05,00,0.00
2011,06,17,05,01,0.00
2011,06,17,05,02,0.00
2011,06,17,05,03,0.00
2011,06,17,05,04,0.00
2011,06,17,05,05,0.00
2011,06,17,05,06,0.00
2011,06,17,05,07,0.00
2011,06,17,05,08,0.00
2011,06,17,05,09,0.00
2011,06,17,05,10,0.00
2011,06,17,05,11,0.00
2011,06,17,05,12,0.00
2011,06,17,05,13,2.50
2011,06,17,05,14,5.00
2011,06,17,05,15,5.00
2011,06,17,05,16,5.00
2011,06,17,05,17,5.00
2011,06,17,05,18,5.00
2011,06,17,05,19,5.00
2011,06,17,05,20,6.60
2011,06,17,05,21,7.00
2011,06,17,05,22,7.00
2011,06,17,05,23,8.80
2011,06,17,05,24,9.00
2011,06,17,05,25,9.00
2011,06,17,05,26,11.00
2011,06,17,05,27,11.00
2011,06,17,05,28,11.00
2011,06,17,05,29,11.20
2011,06,17,05,30,12.00
2011,06,17,05,31,12.00
2011,06,17,05,32,12.00
2011,06,17,05,33,12.70
2011,06,17,05,34,14.00
2011,06,17,05,35,14.00
2011,06,17,05,36,14.00
2011,06,17,05,37,15.10
2011,06,17,05,38,16.00
2011,06,17,05,39,16.00
2011,06,17,05,40,16.00
2011,06,17,05,41,16.00
2011,06,17,05,42,16.00
2011,06,17,05,43,17.50
2011,06,17,05,44,18.00
2011,06,17,05,45,18.90
2011,06,17,05,46,24.40
2011,06,17,05,47,29.80
2011,06,17,05,48,28.00
2011,06,17,05,49,28.00
2011,06,17,05,50,27.70
2011,06,17,05,51,26.00
2011,06,17,05,52,27.50
2011,06,17,05,53,34.00
2011,06,17,05,54,37.60
2011,06,17,05,55,41.50
2011,06,17,05,56,46.40
2011,06,17,05,57,48.60
2011,06,17,05,58,52.30
2011,06,17,05,59,56.00
2011,06,17,06,00,59.10
2011,06,17,06,01,60.00
2011,06,17,06,02,61.80
2011,06,17,06,03,59.80
2011,06,17,06,04,53.10
2011,06,17,06,05,56.20
2011,06,17,06,06,73.20
2011,06,17,06,07,86.30
2011,06,17,06,08,90.60
2011,06,17,06,09,94.60
2011,06,17,06,10,97.80
2011,06,17,06,11,100.20
2011,06,17,06,12,104.30
2011,06,17,06,13,107.20
2011,06,17,06,14,109.60
2011,06,17,06,15,113.60
2011,06,17,06,16,116.40
2011,06,17,06,17,118.80
2011,06,17,06,18,121.60
2011,06,17,06,19,124.60
2011,06,17,06,20,127.40
2011,06,17,06,21,129.70
2011,06,17,06,22,133.40
2011,06,17,06,23,136.10
2011,06,17,06,24,138.20
2011,06,17,06,25,140.20
2011,06,17,06,26,141.60
2011,06,17,06,27,143.40
2011,06,17,06,28,145.50
2011,06,17,06,29,147.60
2011,06,17,06,30,150.60
2011,06,17,06,31,154.60
2011,06,17,06,32,157.70
2011,06,17,06,33,161.80
2011,06,17,06,34,163.20
2011,06,17,06,35,167.20
2011,06,17,06,36,171.30
2011,06,17,06,37,174.80
2011,06,17,06,38,179.80
2011,06,17,06,39,184.20
2011,06,17,06,40,189.10
2011,06,17,06,41,192.90
2011,06,17,06,42,196.40
2011,06,17,06,43,201.00
2011,06,17,06,44,205.40
2011,06,17,06,45,210.00
2011,06,17,06,46,215.80
2011,06,17,06,47,215.70
2011,06,17,06,48,219.40
2011,06,17,06,49,232.80
2011,06,17,06,50,241.90
2011,06,17,06,51,246.90
2011,06,17,06,52,251.80
2011,06,17,06,53,253.00
2011,06,17,06,54,259.00
2011,06,17,06,55,264.50
2011,06,17,06,56,268.80
2011,06,17,06,57,272.30
2011,06,17,06,58,278.20
2011,06,17,06,59,281.60
2011,06,17,07,00,285.80
2011,06,17,07,01,290.40
2011,06,17,07,02,289.30
2011,06,17,07,03,261.30
2011,06,17,07,04,213.30
2011,06,17,07,05,178.40
2011,06,17,07,06,140.90
2011,06,17,07,07,137.10
2011,06,17,07,08,134.80
2011,06,17,07,09,130.10
2011,06,17,07,10,151.20
2011,06,17,07,11,152.10
2011,06,17,07,12,175.50
2011,06,17,07,13,159.20
2011,06,17,07,14,214.20
2011,06,17,07,15,214.90
2011,06,17,07,16,205.00
2011,06,17,07,17,202.30
2011,06,17,07,18,155.90
2011,06,17,07,19,151.00
2011,06,17,07,20,267.10
2011,06,17,07,21,174.00
2011,06,17,07,22,186.80
2011,06,17,07,23,302.60
2011,06,17,07,24,302.80
2011,06,17,07,25,297.10
2011,06,17,07,26,320.90
2011,06,17,07,27,323.70
2011,06,17,07,28,328.30
2011,06,17,07,29,296.80
2011,06,17,07,30,259.90
2011,06,17,07,31,311.00
2011,06,17,07,32,341.10
2011,06,17,07,33,345.80
2011,06,17,07,34,352.20
2011,06,17,07,35,356.30
2011,06,17,07,36,355.60
2011,06,17,07,37,355.00
2011,06,17,07,38,358.90
2011,06,17,07,39,371.20
2011,06,17,07,40,374.00
2011,06,17,07,41,379.40
2011,06,17,07,42,361.00
2011,06,17,07,43,367.20
2011,06,17,07,44,390.00
2011,06,17,07,45,390.00
2011,06,17,07,46,391.60
2011,06,17,07,47,402.00
2011,06,17,07,48,407.80
2011,06,17,07,49,413.60
2011,06,17,07,50,413.60
2011,06,17,07,51,418.20
2011,06,17,07,52,433.80
2011,06,17,07,53,446.90
2011,06,17,07,54,448.80
2011,06,17,07,55,452.40
2011,06,17,07,56,470.70
2011,06,17,07,57,482.30
2011,06,17,07,58,491.20
2011,06,17,07,59,500.30
2011,06,17,08,00,509.80
2011,06,17,08,01,508.80
2011,06,17,08,02,515.20
2011,06,17,08,03,521.30
2011,06,17,08,04,538.30
2011,06,17,08,05,551.40
2011,06,17,08,06,529.00
2011,06,17,08,07,573.80
2011,06,17,08,08,581.80
2011,06,17,08,09,580.00
2011,06,17,08,10,581.00
2011,06,17,08,11,587.60
2011,06,17,08,12,596.90
2011,06,17,08,13,599.60
2011,06,17,08,14,604.70
2011,06,17,08,15,614.00
2011,06,17,08,16,618.80
2011,06,17,08,17,619.10
2011,06,17,08,18,623.30
2011,06,17,08,19,634.10
2011,06,17,08,20,643.40
2011,06,17,08,21,649.00
2011,06,17,08,22,641.60
2011,06,17,08,23,648.30
2011,06,17,08,24,650.40
2011,06,17,08,25,576.00
2011,06,17,08,26,563.00
2011,06,17,08,27,601.70
2011,06,17,08,28,616.40
2011,06,17,08,29,617.00
2011,06,17,08,30,605.20
2011,06,17,08,31,643.00
2011,06,17,08,32,643.00
2011,06,17,08,33,636.00
2011,06,17,08,34,618.30
2011,06,17,08,35,655.80
2011,06,17,08,36,650.50
2011,06,17,08,37,645.20
2011,06,17,08,38,639.80
2011,06,17,08,39,633.80
2011,06,17,08,40,627.80
2011,06,17,08,41,622.30
2011,06,17,08,42,618.60
2011,06,17,08,43,614.50
2011,06,17,08,44,608.50
2011,06,17,08,45,608.80
2011,06,17,08,46,603.20
2011,06,17,08,47,589.80
2011,06,17,08,48,585.30
2011,06,17,08,49,592.70
2011,06,17,08,50,583.20
2011,06,17,08,51,582.00
2011,06,17,08,52,596.80
2011,06,17,08,53,613.90
2011,06,17,08,54,630.80
2011,06,17,08,55,626.80
2011,06,17,08,56,606.60
2011,06,17,08,57,602.80
2011,06,17,08,58,605.00
2011,06,17,08,59,592.90
2011,06,17,09,00,560.00
2011,06,17,09,01,509.00
2011,06,17,09,02,524.20
2011,06,17,09,03,514.50
2011,06,17,09,04,460.60
2011,06,17,09,05,454.00
2011,06,17,09,06,407.30
2011,06,17,09,07,338.40
2011,06,17,09,08,345.90
2011,06,17,09,09,302.00
2011,06,17,09,10,336.40
2011,06,17,09,11,334.40
2011,06,17,09,12,351.20
2011,06,17,09,13,296.80
2011,06,17,09,14,290.00
2011,06,17,09,15,379.00
2011,06,17,09,16,401.40
2011,06,17,09,17,458.30
2011,06,17,09,18,533.00
2011,06,17,09,19,533.00
2011,06,17,09,20,518.80
2011,06,17,09,21,499.70
2011,06,17,09,22,554.70
2011,06,17,09,23,563.30
2011,06,17,09,24,577.20
2011,06,17,09,25,582.60
2011,06,17,09,26,611.30
2011,06,17,09,27,611.90
2011,06,17,09,28,589.30
2011,06,17,09,29,560.50
2011,06,17,09,30,548.00
2011,06,17,09,31,510.20
2011,06,17,09,32,517.60
2011,06,17,09,33,508.80
2011,06,17,09,34,527.80
2011,06,17,09,35,541.60
2011,06,17,09,36,527.70
2011,06,17,09,37,515.60
2011,06,17,09,38,537.10
2011,06,17,09,39,541.00
2011,06,17,09,40,541.00
2011,06,17,09,41,541.00
2011,06,17,09,42,541.80
2011,06,17,09,43,547.90
2011,06,17,09,44,555.00
2011,06,17,09,45,552.20
2011,06,17,09,46,565.80
2011,06,17,09,47,574.10
2011,06,17,09,48,578.00
2011,06,17,09,49,606.30
2011,06,17,09,50,619.00
2011,06,17,09,51,636.40
2011,06,17,09,52,661.60
2011,06,17,09,53,673.10
2011,06,17,09,54,660.30
2011,06,17,09,55,634.50
2011,06,17,09,56,628.80
2011,06,17,09,57,654.60
2011,06,17,09,58,647.40
2011,06,17,09,59,657.60
2011,06,17,10,00,667.10
2011,06,17,10,01,680.00
2011,06,17,10,02,689.30
2011,06,17,10,03,696.00
2011,06,17,10,04,696.60
2011,06,17,10,05,700.00
2011,06,17,10,06,700.00
2011,06,17,10,07,700.00
2011,06,17,10,08,699.40
2011,06,17,10,09,697.30
2011,06,17,10,10,694.80
2011,06,17,10,11,695.80
2011,06,17,10,12,703.60
2011,06,17,10,13,704.00
2011,06,17,10,14,705.30
2011,06,17,10,15,710.00
2011,06,17,10,16,704.30
2011,06,17,10,17,688.70
2011,06,17,10,18,690.40
2011,06,17,10,19,698.50
2011,06,17,10,20,700.00
2011,06,17,10,21,702.50
2011,06,17,10,22,712.80
2011,06,17,10,23,721.20
2011,06,17,10,24,726.00
2011,06,17,10,25,726.20
2011,06,17,10,26,728.90
2011,06,17,10,27,727.10
2011,06,17,10,28,719.80
2011,06,17,10,29,710.60
2011,06,17,10,30,719.50
2011,06,17,10,31,715.60
2011,06,17,10,32,719.50
2011,06,17,10,33,725.50
2011,06,17,10,34,729.30
2011,06,17,10,35,732.90
2011,06,17,10,36,737.60
2011,06,17,10,37,742.30
2011,06,17,10,38,742.80
2011,06,17,10,39,744.00
2011,06,17,10,40,744.30
2011,06,17,10,41,747.50
2011,06,17,10,42,754.30
2011,06,17,10,43,718.80
2011,06,17,10,44,763.50
2011,06,17,10,45,773.00
2011,06,17,10,46,791.00
2011,06,17,10,47,795.90
2011,06,17,10,48,796.40
2011,06,17,10,49,805.00
2011,06,17,10,50,818.50
2011,06,17,10,51,895.00
2011,06,17,10,52,828.30
2011,06,17,10,53,613.20
2011,06,17,10,54,616.10
2011,06,17,10,55,625.30
2011,06,17,10,56,606.00
2011,06,17,10,57,606.00
2011,06,17,10,58,606.00
2011,06,17,10,59,585.00
2011,06,17,11,00,529.20
2011,06,17,11,01,499.00
2011,06,17,11,02,511.60
2011,06,17,11,03,556.70
2011,06,17,11,04,595.60
2011,06,17,11,05,603.00
2011,06,17,11,06,741.90
2011,06,17,11,07,768.00
2011,06,17,11,08,768.00
2011,06,17,11,09,876.90
2011,06,17,11,10,815.80
2011,06,17,11,11,789.00
2011,06,17,11,12,789.00
2011,06,17,11,13,789.00
2011,06,17,11,14,790.80
2011,06,17,11,15,805.50
2011,06,17,11,16,819.60
2011,06,17,11,17,786.10
2011,06,17,11,18,781.00
2011,06,17,11,19,821.40
2011,06,17,11,20,828.00
2011,06,17,11,21,828.90
2011,06,17,11,22,826.90
2011,06,17,11,23,822.30
2011,06,17,11,24,821.00
2011,06,17,11,25,802.80
2011,06,17,11,26,816.30
2011,06,17,11,27,815.10
2011,06,17,11,28,813.20
2011,06,17,11,29,782.80
2011,06,17,11,30,776.70
2011,06,17,11,31,783.30
2011,06,17,11,32,797.30
2011,06,17,11,33,793.20
2011,06,17,11,34,794.70
2011,06,17,11,35,826.70
2011,06,17,11,36,833.40
2011,06,17,11,37,836.10
2011,06,17,11,38,832.20
2011,06,17,11,39,837.20
2011,06,17,11,40,838.60
2011,06,17,11,41,840.70
2011,06,17,11,42,842.70
2011,06,17,11,43,834.10
2011,06,17,11,44,834.30
2011,06,17,11,45,848.00
2011,06,17,11,46,847.00
2011,06,17,11,47,846.40
2011,06,17,11,48,844.80
2011,06,17,11,49,844.00
2011,06,17,11,50,845.40
2011,06,17,11,51,844.50
2011,06,17,11,52,845.60
2011,06,17,11,53,846.80
2011,06,17,11,54,847.00
2011,06,17,11,55,847.00
2011,06,17,11,56,846.00
2011,06,17,11,57,849.10
2011,06,17,11,58,850.80
2011,06,17,11,59,849.60
2011,06,17,12,00,853.20
2011,06,17,12,01,854.80
2011,06,17,12,02,858.80
2011,06,17,12,03,862.20
2011,06,17,12,04,866.70
2011,06,17,12,05,872.00
2011,06,17,12,06,877.70
2011,06,17,12,07,882.30
2011,06,17,12,08,885.00
2011,06,17,12,09,886.00
2011,06,17,12,10,884.90
2011,06,17,12,11,885.20
2011,06,17,12,12,886.00
2011,06,17,12,13,886.00
2011,06,17,12,14,887.60
2011,06,17,12,15,888.80
2011,06,17,12,16,889.00
2011,06,17,12,17,884.80
2011,06,17,12,18,884.00
2011,06,17,12,19,879.20
2011,06,17,12,20,876.80
2011,06,17,12,21,871.60
2011,06,17,12,22,867.60
2011,06,17,12,23,891.00
2011,06,17,12,24,890.20
2011,06,17,12,25,868.00
2011,06,17,12,26,824.30
2011,06,17,12,27,844.20
2011,06,17,12,28,849.60
2011,06,17,12,29,882.90
2011,06,17,12,30,884.00
2011,06,17,12,31,880.30
2011,06,17,12,32,875.50
2011,06,17,12,33,872.80
2011,06,17,12,34,870.70
2011,06,17,12,35,870.00
2011,06,17,12,36,868.60
2011,06,17,12,37,868.00
2011,06,17,12,38,868.00
2011,06,17,12,39,869.60
2011,06,17,12,40,870.00
2011,06,17,12,41,876.30
2011,06,17,12,42,875.10
2011,06,17,12,43,879.10
2011,06,17,12,44,881.20
2011,06,17,12,45,874.80
2011,06,17,12,46,875.70
2011,06,17,12,47,850.20
2011,06,17,12,48,837.30
2011,06,17,12,49,878.00
2011,06,17,12,50,833.00
2011,06,17,12,51,833.00
2011,06,17,12,52,848.30
2011,06,17,12,53,867.00
2011,06,17,12,54,835.00
2011,06,17,12,55,803.00
2011,06,17,12,56,852.80
2011,06,17,12,57,832.00
2011,06,17,12,58,803.00
2011,06,17,12,59,792.50
2011,06,17,13,00,753.50
2011,06,17,13,01,742.00
2011,06,17,13,02,782.00
2011,06,17,13,03,861.90
2011,06,17,13,04,886.60
2011,06,17,13,05,889.00
2011,06,17,13,06,887.80
2011,06,17,13,07,884.20
2011,06,17,13,08,886.40
2011,06,17,13,09,889.30
2011,06,17,13,10,883.80
2011,06,17,13,11,862.50
2011,06,17,13,12,893.00
2011,06,17,13,13,898.00
2011,06,17,13,14,834.00
2011,06,17,13,15,705.40
2011,06,17,13,16,691.00
2011,06,17,13,17,743.40
2011,06,17,13,18,829.00
2011,06,17,13,19,860.00
2011,06,17,13,20,840.50
2011,06,17,13,21,848.70
2011,06,17,13,22,877.60
2011,06,17,13,23,895.00
2011,06,17,13,24,894.00
2011,06,17,13,25,914.20
2011,06,17,13,26,904.30
2011,06,17,13,27,910.10
2011,06,17,13,28,852.10
2011,06,17,13,29,870.60
2011,06,17,13,30,939.00
2011,06,17,13,31,939.00
2011,06,17,13,32,939.00
2011,06,17,13,33,913.00
2011,06,17,13,34,809.00
2011,06,17,13,35,853.70
2011,06,17,13,36,979.00
2011,06,17,13,37,927.80
2011,06,17,13,38,879.80
2011,06,17,13,39,910.40
2011,06,17,13,40,898.50
2011,06,17,13,41,909.00
2011,06,17,13,42,913.60
2011,06,17,13,43,872.40
2011,06,17,13,44,883.70
2011,06,17,13,45,904.00
2011,06,17,13,46,791.50
2011,06,17,13,47,801.40
2011,06,17,13,48,859.30
2011,06,17,13,49,870.00
2011,06,17,13,50,803.40
2011,06,17,13,51,796.00
2011,06,17,13,52,701.30
2011,06,17,13,53,704.50
2011,06,17,13,54,672.20
2011,06,17,13,55,665.20
2011,06,17,13,56,651.70
2011,06,17,13,57,643.50
2011,06,17,13,58,658.20
2011,06,17,13,59,684.80
2011,06,17,14,00,677.00
2011,06,17,14,01,684.20
2011,06,17,14,02,694.40
2011,06,17,14,03,684.50
2011,06,17,14,04,673.00
2011,06,17,14,05,674.10
2011,06,17,14,06,727.00
2011,06,17,14,07,735.70
2011,06,17,14,08,724.00
2011,06,17,14,09,733.80
2011,06,17,14,10,737.00
2011,06,17,14,11,737.00
2011,06,17,14,12,761.00
2011,06,17,14,13,752.50
2011,06,17,14,14,718.60
2011,06,17,14,15,777.00
2011,06,17,14,16,740.80
2011,06,17,14,17,757.20
2011,06,17,14,18,704.90
2011,06,17,14,19,691.00
2011,06,17,14,20,679.00
2011,06,17,14,21,681.00
2011,06,17,14,22,690.90
2011,06,17,14,23,717.20
2011,06,17,14,24,753.00
2011,06,17,14,25,794.50
2011,06,17,14,26,806.00
2011,06,17,14,27,739.00
2011,06,17,14,28,700.30
2011,06,17,14,29,694.00
2011,06,17,14,30,729.70
2011,06,17,14,31,768.80
2011,06,17,14,32,735.50
2011,06,17,14,33,705.20
2011,06,17,14,34,663.40
2011,06,17,14,35,676.10
2011,06,17,14,36,680.00
2011,06,17,14,37,638.10
2011,06,17,14,38,649.00
2011,06,17,14,39,629.00
2011,06,17,14,40,644.20
2011,06,17,14,41,673.30
2011,06,17,14,42,640.60
2011,06,17,14,43,617.00
2011,06,17,14,44,599.30
2011,06,17,14,45,668.20
2011,06,17,14,46,692.20
2011,06,17,14,47,694.00
2011,06,17,14,48,735.40
2011,06,17,14,49,762.00
2011,06,17,14,50,738.00
2011,06,17,14,51,672.60
2011,06,17,14,52,629.00
2011,06,17,14,53,687.10
2011,06,17,14,54,709.20
2011,06,17,14,55,777.00
2011,06,17,14,56,787.40
2011,06,17,14,57,784.00
2011,06,17,14,58,754.20
2011,06,17,14,59,780.50
2011,06,17,15,00,752.70
2011,06,17,15,01,670.40
2011,06,17,15,02,655.90
2011,06,17,15,03,626.00
2011,06,17,15,04,629.40
2011,06,17,15,05,687.80
2011,06,17,15,06,688.20
2011,06,17,15,07,680.00
2011,06,17,15,08,623.70
2011,06,17,15,09,519.00
2011,06,17,15,10,584.20
2011,06,17,15,11,702.20
2011,06,17,15,12,751.50
2011,06,17,15,13,726.00
2011,06,17,15,14,703.00
2011,06,17,15,15,746.50
2011,06,17,15,16,710.00
2011,06,17,15,17,680.00
2011,06,17,15,18,510.50
2011,06,17,15,19,454.00
2011,06,17,15,20,454.00
2011,06,17,15,21,687.10
2011,06,17,15,22,726.00
2011,06,17,15,23,726.00
2011,06,17,15,24,730.20
2011,06,17,15,25,821.50
2011,06,17,15,26,892.50
2011,06,17,15,27,886.10
2011,06,17,15,28,874.40
2011,06,17,15,29,865.80
2011,06,17,15,30,850.90
2011,06,17,15,31,857.90
2011,06,17,15,32,853.60
2011,06,17,15,33,846.60
2011,06,17,15,34,808.20
2011,06,17,15,35,758.50
2011,06,17,15,36,789.30
2011,06,17,15,37,830.90
2011,06,17,15,38,839.80
2011,06,17,15,39,839.90
2011,06,17,15,40,838.00
2011,06,17,15,41,839.50
2011,06,17,15,42,837.60
2011,06,17,15,43,821.70
2011,06,17,15,44,812.70
2011,06,17,15,45,803.50
2011,06,17,15,46,803.00
2011,06,17,15,47,785.90
2011,06,17,15,48,783.30
2011,06,17,15,49,777.00
2011,06,17,15,50,777.00
2011,06,17,15,51,780.20
2011,06,17,15,52,769.40
2011,06,17,15,53,694.00
2011,06,17,15,54,694.00
2011,06,17,15,55,694.00
2011,06,17,15,56,661.20
2011,06,17,15,57,617.40
2011,06,17,15,58,649.50
2011,06,17,15,59,671.20
2011,06,17,16,00,707.00
2011,06,17,16,01,733.00
2011,06,17,16,02,733.00
2011,06,17,16,03,575.90
2011,06,17,16,04,513.00
2011,06,17,16,05,513.00
2011,06,17,16,06,513.00
2011,06,17,16,07,449.60
2011,06,17,16,08,528.10
2011,06,17,16,09,538.00
2011,06,17,16,10,468.00
2011,06,17,16,11,491.90
2011,06,17,16,12,713.90
2011,06,17,16,13,654.60
2011,06,17,16,14,574.60
2011,06,17,16,15,552.20
2011,06,17,16,16,620.50
2011,06,17,16,17,646.30
2011,06,17,16,18,616.10
2011,06,17,16,19,555.00
2011,06,17,16,20,696.20
2011,06,17,16,21,824.50
2011,06,17,16,22,796.00
2011,06,17,16,23,796.00
2011,06,17,16,24,820.10
2011,06,17,16,25,788.30
2011,06,17,16,26,759.70
2011,06,17,16,27,742.50
2011,06,17,16,28,737.00
2011,06,17,16,29,718.40
2011,06,17,16,30,706.30
2011,06,17,16,31,703.20
2011,06,17,16,32,696.30
2011,06,17,16,33,696.00
2011,06,17,16,34,691.00
2011,06,17,16,35,689.20
2011,06,17,16,36,677.30
2011,06,17,16,37,665.20
2011,06,17,16,38,631.90
2011,06,17,16,39,561.00
2011,06,17,16,40,593.70
2011,06,17,16,41,670.90
2011,06,17,16,42,655.70
2011,06,17,16,43,606.00
2011,06,17,16,44,485.00
2011,06,17,16,45,396.00
2011,06,17,16,46,424.00
2011,06,17,16,47,389.00
2011,06,17,16,48,393.00
2011,06,17,16,49,440.80
2011,06,17,16,50,457.00
2011,06,17,16,51,457.00
2011,06,17,16,52,533.90
2011,06,17,16,53,552.00
2011,06,17,16,54,552.00
2011,06,17,16,55,602.30
2011,06,17,16,56,626.00
2011,06,17,16,57,551.80
2011,06,17,16,58,638.30
2011,06,17,16,59,594.00
2011,06,17,17,00,589.20
2011,06,17,17,01,570.00
2011,06,17,17,02,544.50
2011,06,17,17,03,488.50
2011,06,17,17,04,481.60
2011,06,17,17,05,460.20
2011,06,17,17,06,494.10
2011,06,17,17,07,568.00